This is the latest recevied weather packets stored in our database for station/object VA2CPJ. If no packets are shown the sender has not sent any weather packets the latest 10 day(s).
| Time | Temp. | Humidity | Pressure | Rain* | Wind** | Luminosity | Snow |
|---|---|---|---|---|---|---|---|
| 1777840066 | 10° C | 38% | 1014.7 hPa | - | - | - | - |
| 1777838777 | 10° C | 39% | 1014.7 hPa | - | - | - | - |
| 1777837520 | 10° C | 40% | 1014.7 hPa | - | - | - | - |
| 1777836943 | 10° C | 39% | 1014.7 hPa | - | - | - | - |
| 1777834520 | 10° C | 39% | 1014.7 hPa | - | - | - | - |
| 1777832140 | 10.56° C | 38% | 1014.7 hPa | - | - | - | - |
| 1777830993 | 10° C | 39% | 1015 hPa | - | - | - | - |
| 1777830345 | 10° C | 39% | 1015 hPa | - | - | - | - |
| 1777829178 | 10° C | 39% | 1015 hPa | - | - | - | - |
| 1777828525 | 10° C | 39% | 1015.4 hPa | - | - | - | - |
| 1777827983 | 10° C | 38% | 1015.4 hPa | - | - | - | - |
| 1777827930 | 10° C | 38% | 1015.4 hPa | - | - | - | - |
| 1777827624 | 10° C | 37% | 1014.3 hPa | - | - | - | - |
| 1777827020 | 10° C | 35% | 1014.7 hPa | - | - | - | - |
| 1777826434 | 10.56° C | 34% | 1014.7 hPa | - | - | - | - |
| 1777826136 | 10° C | 35% | 1015.7 hPa | - | - | - | - |
| 1777825524 | 10° C | 35% | 1015.7 hPa | - | - | - | - |
| 1777824623 | 10° C | 36% | 1015 hPa | - | - | - | - |
| 1777822260 | 9.44° C | 38% | 1015.7 hPa | - | - | - | - |
| 1777820423 | 9.44° C | 41% | 1016 hPa | - | - | - | - |
| 1777820125 | 8.89° C | 43% | 1017.1 hPa | - | - | - | - |
| 1777819521 | 8.89° C | 48% | 1017.4 hPa | - | - | - | - |
| 1777818927 | 8.33° C | 51% | 1017.4 hPa | - | - | - | - |
| 1777818025 | 8.89° C | 51% | 1016.7 hPa | - | - | - | - |
| 1777817421 | 8.33° C | 53% | 1017.1 hPa | - | - | - | - |
* Rain since midnight (hover to see other rain measurements)
** Current wind speed in m/s (hover to see current wind gust speed)